Flag for Dominican Republic Weather past 2 weeks in Puerto Plata, Dominican Republic

Now
75 °F

Passing clouds.


Feels Like: 74 °F
Forecast: 76 / 84 °F
Wind: No wind

Location: Puerto Plata International

Current Time: Jan 27, 2015 at 2:06:51 AM

Latest Report: Jan 26, 2015 at 11:00 PM


Visibility: N/A

Pressure: 29.95 "Hg

Humidity: 94%

Dew point: 73 °F

Location of Puerto PlataLocation

Historic Weather in Puerto Plata — Graph

°F

Puerto Plata temperature yesterday

Maximum temperature yesterday: 88 °F (at 2:00 PM)
Minimum temperature yesterday: 70 °F (at 2:00 AM)
Average temperature yesterday: 79 °F

Past Weeks' High & Low Weather Summary

 TemperatureHumidityPressure
High88 °F (Jan 14, 1:00 PM)100% (Jan 12, 5:00 AM)30.18 "Hg (Jan 12, 5:00 AM)
Low66 °F (Jan 21, 7:00 AM)55% (Jan 26, 2:00 PM)29.86 "Hg (Jan 26, 5:00 PM)
Average77 °F82%30.00 "Hg
* Reported Jan 11 11:00 PM — Jan 26 11:00 PM, Puerto Plata, Weather by CustomWeather, © 2014

Note: Actual official high and low records may vary slightly from our data, if they occured in-between our weather recording intervals... More about our weather records

Advertising

Puerto Plata weather history for previous 24 hours

 ConditionsComfort  
Time TempWeatherWind HumidityBarometerVisibility
11:00 PM
Jan 26
75 °FPassing clouds.No wind94%29.95 "HgN/A
8:00 PM79 °FPartly cloudy.No wind94%29.92 "HgN/A
7:00 PM81 °FPassing clouds.No wind84%29.92 "HgN/A
6:00 PM82 °FScattered clouds.9 mph79%29.89 "HgN/A
5:00 PM84 °FPassing clouds.7 mph74%29.86 "HgN/A
4:00 PM84 °FPassing clouds.14 mph70%29.89 "HgN/A
3:00 PM88 °FPassing clouds.6 mph55%29.89 "HgN/A
2:00 PM88 °FPassing clouds.12 mph55%29.92 "HgN/A
1:00 PM84 °FPassing clouds.12 mph62%29.95 "HgN/A
12:00 PM84 °FPassing clouds.12 mph62%29.98 "HgN/A
11:00 AM82 °FPassing clouds.6 mph66%29.98 "HgN/A
10:00 AM79 °FPassing clouds.No wind70%30.01 "HgN/A
9:00 AM73 °FPassing clouds.No wind83%29.95 "HgN/A
8:00 AM70 °FScattered clouds.No wind94%29.95 "HgN/A
7:00 AM70 °FPassing clouds.No wind94%29.95 "HgN/A
5:00 AM70 °FPassing clouds.No wind100%29.92 "HgN/A
2:00 AM70 °FPassing clouds.No wind88%29.95 "HgN/A
Weather by CustomWeather, © 2014

See weather overviewHow to use our weather pages